Zurück zum Katalog

COSMOS 1176

AktivMilitärLEO
NORAD 11788·PAYLOAD·🇷🇺 Russia

Gestartet Apr 29, 1980 von Baikonur Cosmodrome

Loading…

Nächste Überflüge (nächste 24 Stunden)

TLE

AktuellSource: Space-Track

Epoche: Sep 14, 2026, 15:34 UTC

1 11788U 80034A   26257.64927500 -.00000053  00000-0  29356-4 0  9993
2 11788  64.8281 136.0613 0062004 258.9592 100.4494 13.93150351354283

Verfolge COSMOS 1176 in Echtzeit mit AllMySat

Download on the App Store